H1 CPF 2 NER 2022 12 16 9 350 01 glonass139 H2 1808601 9139 43687 2022 12 16 0 0 0 2022 12 19 23 45 0 900 1 1 0 0 0 1 H9 10 0 59929 0.00000 0 -22999481.656 9438211.922 5723422.320 10 0 59929 900.00000 0 -22167887.734 9092935.687 8764156.691 10 0 59929 1800.00000 0 -21063499.819 8482766.316 11634732.094 10 0 59929 2700.00000 0 -19739474.697 7584617.201 14279470.599 10 0 59929 3600.00000 0 -18254543.717 6387105.110 16647102.139 10 0 59929 4500.00000 0 -16670532.701 4891287.662 18691752.473 10 0 59929 5400.00000 0 -15049774.496 3110880.574 20373824.764 10 0 59929 6300.00000 0 -13452522.352 1071945.016 21660758.528 10 0 59929 7200.00000 0 -11934471.884 -1187942.459 22527652.172 10 0 59929 8100.00000 0 -10544494.414 -3621003.703 22957738.098 10 0 59929 9000.00000 0 -9322675.320 -6171002.831 22942701.993 10 0 59929 9900.00000 0 -8298738.294 -8775348.825 22482840.791 10 0 59929 10800.00000 0 -7490920.128 -11367470.879 21587056.594 10 0 59929 11700.00000 0 -6905342.073 -13879369.299 20272686.665 10 0 59929 12600.00000 0 -6535903.267 -16244237.306 18565172.494 10 0 59929 13500.00000 0 -6364700.076 -18399046.122 16497573.707 10 0 59929 14400.00000 0 -6362953.460 -20286986.915 14109935.394 10 0 59929 15300.00000 0 -6492405.306 -21859668.703 11448520.195 10 0 59929 16200.00000 0 -6707125.041 -23078981.127 8564919.096 10 0 59929 17100.00000 0 -6955650.507 -23918544.617 5515057.279 10 0 59929 18000.00000 0 -7183372.862 -24364687.233 2358113.767 10 0 59929 18900.00000 0 -7335064.703 -24416907.147 -844624.590 10 0 59929 19800.00000 0 -7357444.248 -24087801.058 -4030952.682 10 0 59929 20700.00000 0 -7201666.570 -23402461.239 -7138956.900 10 0 59929 21600.00000 0 -6825635.687 -22397366.247 -10108221.271 10 0 59929 22500.00000 0 -6196038.587 -21118811.748 -12881006.052 10 0 59929 23400.00000 0 -5290013.915 -19620947.349 -15403375.216 10 0 59929 24300.00000 0 -4096383.338 -17963501.997 -17626250.417 10 0 59929 25200.00000 0 -2616392.020 -16209293.663 -19506370.486 10 0 59929 26100.00000 0 -863925.402 -14421628.100 -21007137.382 10 0 59929 27000.00000 0 1134808.480 -12661696.043 -22099331.967 10 0 59929 27900.00000 0 3342119.379 -10986078.139 -22761685.567 10 0 59929 28800.00000 0 5710164.030 -9444462.289 -22981296.123 10 0 59929 29700.00000 0 8182709.786 -8077668.916 -22753880.870 10 0 59929 30600.00000 0 10697260.010 -6916066.625 -22083860.599 10 0 59929 31500.00000 0 13187453.154 -5978444.198 -20984273.839 10 0 59929 32400.00000 0 15585635.990 -5271385.543 -19476522.553 10 0 59929 33300.00000 0 17825503.997 -4789172.981 -17589954.219 10 0 59929 34200.00000 0 19844698.808 -4514221.937 -15361288.344 10 0 59929 35100.00000 0 21587254.470 -4418027.642 -12833898.601 10 0 59929 36000.00000 0 23005790.345 -4462582.724 -10056964.595 10 0 59929 36900.00000 0 24063359.138 -4602204.693 -7084510.063 10 0 59929 37800.00000 0 24734872.945 -4785694.915 -3974346.594 10 0 59929 38700.00000 0 25008048.114 -4958736.590 -786943.880 10 0 59929 39600.00000 0 24883829.886 -5066429.290 2415750.829 10 0 59929 40500.00000 0 24376279.915 -5055851.815 5571520.485 10 0 59929 41400.00000 0 23511932.339 -4878544.153 8619089.256 10 0 59929 42300.00000 0 22328646.474 -4492802.972 11499312.661 10 0 59929 43200.00000 0 20874005.301 -3865693.144 14156323.613 10 0 59929 44100.00000 0 19203327.744 -2974690.042 16538612.165 10 0 59929 45000.00000 0 17377378.671 -1808883.118 18600018.294 10 0 59929 45900.00000 0 15459872.810 -369689.787 20300619.145 10 0 59929 46800.00000 0 13514876.849 1328950.784 21607494.378 10 0 59929 47700.00000 0 11604217.908 3260912.637 22495355.707 10 0 59929 48600.00000 0 9785005.732 5388733.523 22947029.442 10 0 59929 49500.00000 0 8107370.922 7664946.426 22953783.572 10 0 59929 50400.00000 0 6612512.324 10033837.767 22515493.666 10 0 59929 51300.00000 0 5331133.692 12433560.412 21640644.819 10 0 59929 52200.00000 0 4282333.557 14798515.042 20346169.563 10 0 59929 53100.00000 0 3472993.587 17061902.117 18657124.640 10 0 59929 54000.00000 0 2897690.009 19158339.627 16606212.257 10 0 59929 54900.00000 0 2539131.154 21026438.730 14233154.260 10 0 59929 55800.00000 0 2369102.299 22611230.743 11583930.463 10 0 59929 56700.00000 0 2349877.859 23866344.778 8709894.908 10 0 59929 57600.00000 0 2436041.337 24755845.264 5666786.362 10 0 59929 58500.00000 0 2576636.255 25255652.376 2513651.634 10 0 59929 59400.00000 0 2717557.094 25354485.570 -688297.780 10 0 59929 60300.00000 0 2804078.921 25054290.182 -3876873.686 10 0 59929 61200.00000 0 2783418.277 24370128.613 -6990120.508 10 0 59929 62100.00000 0 2607216.239 23329540.144 -9967522.119 10 0 59929 63000.00000 0 2233837.673 21971395.758 -12751182.269 10 0 59929 63900.00000 0 1630388.293 20344295.743 -15286955.019 10 0 59929 64800.00000 0 774362.929 18504577.114 -17525502.720 10 0 59929 65700.00000 0 -345146.090 16514014.375 -19423260.500 10 0 59929 66600.00000 0 -1726732.871 14437310.071 -20943288.089 10 0 59929 67500.00000 0 -3356485.971 12339480.328 -22055992.238 10 0 59929 68400.00000 0 -5208330.084 10283244.877 -22739705.538 10 0 59929 69300.00000 0 -7244888.427 8326530.814 -22981110.336 10 0 59929 70200.00000 0 -9418830.973 6520194.323 -22775499.501 10 0 59929 71100.00000 0 -11674653.178 4906055.325 -22126868.982 10 0 59929 72000.00000 0 -13950811.578 3515326.805 -21047840.301 10 0 59929 72900.00000 0 -16182127.654 2367503.797 -19559414.454 10 0 59929 73800.00000 0 -18302359.896 1469757.659 -17690561.884 10 0 59929 74700.00000 0 -20246836.694 816859.949 -15477656.476 10 0 59929 75600.00000 0 -21955040.079 391637.824 -12963764.547 10 0 59929 76500.00000 0 -23373032.170 165940.438 -10197802.701 10 0 59929 77400.00000 0 -24455622.653 102074.212 -7233581.248 10 0 59929 78300.00000 0 -25168186.539 154644.968 -4128752.103 10 0 59929 79200.00000 0 -25488056.101 272727.725 -943682.138 10 0 59929 80100.00000 0 -25405428.888 402271.152 2259725.430 10 0 59929 81000.00000 0 -24923754.230 488633.780 5419238.069 10 0 59929 81900.00000 0 -24059582.633 479143.725 8473505.388 10 0 59929 82800.00000 0 -22841885.169 325572.879 11363250.904 10 0 59929 83700.00000 0 -21310872.188 -13579.597 14032420.812 10 0 59929 84600.00000 0 -19516361.585 -571091.307 16429267.525 10 0 59929 85500.00000 0 -17515765.517 -1369392.620 18507347.192 10 0 59930 0.00000 0 -15371780.270 -2419383.161 20226412.410 10 0 59930 900.00000 0 -13149874.544 -3719739.428 21553184.486 10 0 59930 1800.00000 0 -10915683.549 -5256741.470 22461989.013 10 0 59930 2700.00000 0 -8732412.939 -7004628.354 22935246.502 10 0 59930 3600.00000 0 -6658362.526 -8926466.982 22963807.077 10 0 59930 4500.00000 0 -4744670.531 -10975499.478 22547124.380 10 0 59930 5400.00000 0 -3033371.078 -13096914.065 21693265.565 10 0 59930 6300.00000 0 -1555844.381 -15229966.940 20418757.185 10 0 59930 7200.00000 0 -331722.961 -17310368.057 18748269.707 10 0 59930 8100.00000 0 631701.667 -19272832.672 16714146.151 10 0 59930 9000.00000 0 1339548.034 -21053693.430 14355783.147 10 0 59930 9900.00000 0 1808887.271 -22593464.801 11718875.527 10 0 59930 10800.00000 0 2067778.933 -23839253.357 8854538.113 10 0 59930 11700.00000 0 2153840.976 -24746913.303 5818320.876 10 0 59930 12600.00000 0 2112414.324 -25282856.890 2669135.988 10 0 59930 13500.00000 0 1994399.708 -25425443.434 -531882.854 10 0 59930 14400.00000 0 1853858.418 -25165888.048 -3722566.811 10 0 59930 15300.00000 0 1745478.814 -24508651.138 -6840920.764 10 0 59930 16200.00000 0 1722016.363 -23471291.532 -9826330.825 10 0 59930 17100.00000 0 1831816.308 -22083788.591 -12620746.592 10 0 59930 18000.00000 0 2116524.744 -20387361.117 -15169814.499 10 0 59930 18900.00000 0 2609086.016 -18432832.078 -17423939.751 10 0 59930 19800.00000 0 3332112.334 -16278607.331 -19339255.745 10 0 59930 20700.00000 0 4296695.750 -13988352.794 -20878481.689 10 0 59930 21600.00000 0 5501713.980 -11628467.161 -22011651.588 10 0 59930 22500.00000 0 6933660.671 -9265455.669 -22716700.289 10 0 59930 23400.00000 0 8567008.565 -6963314.641 -22979895.128 10 0 59930 24300.00000 0 10365091.511 -4781035.763 -22796104.786 10 0 59930 25200.00000 0 12281469.414 -2770333.988 -22168900.158 10 0 59930 26100.00000 0 14261719.764 -973693.498 -21110485.187 10 0 59930 27000.00000 0 16245581.346 577187.365 -19641458.977 10 0 59930 27900.00000 0 18169360.833 1862488.077 -17790413.692 10 0 59930 28800.00000 0 19968501.646 2874850.149 -15593375.995 10 0 59930 29700.00000 0 21580207.511 3619430.425 -13093102.894 10 0 59930 30600.00000 0 22946010.681 4113422.643 -10338245.682 10 0 59930 31500.00000 0 24014176.896 4385068.905 -7382398.585 10 0 59930 32400.00000 0 24741846.040 4472204.290 -4283050.895 10 0 59930 33300.00000 0 25096818.488 4420397.620 -1100463.487 10 0 59930 34200.00000 0 25058912.129 4280768.326 2103507.747 10 0 59930 35100.00000 0 24620833.236 4107573.111 5266618.093 10 0 59930 36000.00000 0 23788524.933 3955665.573 8327445.792 10 0 59930 36900.00000 0 22580979.052 3877937.162 11226585.338 10 0 59930 37800.00000 0 21029519.822 3922848.318 13907798.916 10 0 59930 38700.00000 0 19176589.877 4132154.520 16319103.661 10 0 59930 39600.00000 0 17074089.850 4538923.460 18413773.910 10 0 59930 40500.00000 0 14781341.153 5165927.007 20151239.616 10 0 59930 41400.00000 0 12362756.918 6024475.740 21497864.386 10 0 59930 42300.00000 0 9885317.903 7113745.121 22427588.904 10 0 59930 43200.00000 0 7415957.719 8420621.877 22922428.357 10 0 59930 44100.00000 0 5018965.184 9920077.508 22972815.067 10 0 59930 45000.00000 0 2753510.602 11576053.981 22577780.370 10 0 59930 45900.00000 0 671397.396 13342825.564 21744972.651 10 0 59930 46800.00000 0 -1184868.920 15166781.055 20490511.213 10 0 59930 47700.00000 0 -2783615.441 16988553.195 18838678.564 10 0 59930 48600.00000 0 -4105077.665 18745407.602 16821456.485 10 0 59930 49500.00000 0 -5141972.659 20373792.579 14477914.038 10 0 59930 50400.00000 0 -5899546.505 21811944.113 11853458.492 10 0 59930 51300.00000 0 -6395094.795 23002437.701 8998962.699 10 0 59930 52200.00000 0 -6656976.816 23894580.452 5969784.987 10 0 59930 53100.00000 0 -6723165.246 24446543.074 2824699.984 10 0 59930 54000.00000 0 -6639392.789 24627141.875 -375239.310 10 0 59930 54900.00000 0 -6456974.281 24417195.269 -3567886.275 10 0 59930 55800.00000 0 -6230396.637 23810396.852 -6691209.004 10 0 59930 56700.00000 0 -6014779.045 22813667.388 -9684498.454 10 0 59930 57600.00000 0 -5863311.505 21446969.822 -12489552.462 10 0 59930 58500.00000 0 -5824780.825 19742594.145 -15051811.975 10 0 59930 59400.00000 0 -5941289.656 17743941.245 -17321426.924 10 0 59930 60300.00000 0 -6246266.013 15503855.976 -19254230.546 10 0 59930 61200.00000 0 -6762848.432 13082578.758 -20812602.828 10 0 59930 62100.00000 0 -7502716.066 10545400.934 -21966206.046 10 0 59930 63000.00000 0 -8465414.171 7960121.530 -22692578.034 10 0 59930 63900.00000 0 -9638204.485 5394411.375 -22977571.528 10 0 59930 64800.00000 0 -10996447.827 2913194.227 -22815631.096 10 0 59930 65700.00000 0 -12504503.800 576153.755 -22209902.257 10 0 59930 66600.00000 0 -14117110.544 -1564530.057 -21172170.629 10 0 59930 67500.00000 0 -15781187.285 -3466121.332 -19722632.238 10 0 59930 68400.00000 0 -17437984.449 -5096865.343 -17889499.335 10 0 59930 69300.00000 0 -19025491.292 -6437058.901 -15708449.344 10 0 59930 70200.00000 0 -20481000.032 -7479610.522 -13221927.601 10 0 59930 71100.00000 0 -21743718.672 -8230068.291 -10478317.484 10 0 59930 72000.00000 0 -22757322.464 -8706115.725 -7530994.336 10 0 59930 72900.00000 0 -23472336.470 -8936558.511 -4437281.916 10 0 59930 73800.00000 0 -23848248.751 -8959846.447 -1257332.134 10 0 59930 74700.00000 0 -23855265.044 -8822194.539 1947049.451 10 0 59930 75600.00000 0 -23475631.043 -8575384.118 5113608.932 10 0 59930 76500.00000 0 -22704466.704 -8274338.206 8180856.140 10 0 59930 77400.00000 0 -21550077.650 -7974574.686 11089259.411 10 0 59930 78300.00000 0 -20033730.878 -7729645.697 13782399.626 10 0 59930 79200.00000 0 -18188904.393 -7588671.943 16208061.116 10 0 59930 80100.00000 0 -16060042.432 -7594076.203 18319238.546 10 0 59930 81000.00000 0 -13700868.406 -7779611.638 20075040.835 10 0 59930 81900.00000 0 -11172325.775 -8168767.819 21441475.456 10 0 59930 82800.00000 0 -8540232.345 -8773621.396 22392098.775 10 0 59930 83700.00000 0 -5872744.898 -9594179.586 22908520.894 10 0 59930 84600.00000 0 -3237738.507 -10618244.189 22980756.068 10 0 59930 85500.00000 0 -700208.303 -11821802.109 22607412.608 10 0 59931 0.00000 0 1680199.675 -13169926.536 21795719.104 10 0 59931 900.00000 0 3851428.726 -14618152.641 20561386.001 10 0 59931 1800.00000 0 5770927.975 -16114269.404 18928306.148 10 0 59931 2700.00000 0 7407171.081 -17600456.099 16928098.082 10 0 59931 3600.00000 0 8740711.859 -19015673.321 14599501.068 10 0 59931 4500.00000 0 9764735.067 -20298210.042 11987632.384 10 0 59931 5400.00000 0 10485079.941 -21388280.512 9143120.320 10 0 59931 6300.00000 0 10919736.124 -22230562.475 6121128.843 10 0 59931 7200.00000 0 11097833.579 -22776570.086 2980292.248 10 0 59931 8100.00000 0 11058169.370 -22986761.524 -218419.966 10 0 59931 9000.00000 0 10847333.732 -22832291.960 -3412886.146 10 0 59931 9900.00000 0 10517514.836 -22296337.217 -6541040.245 10 0 59931 10800.00000 0 10124075.435 -21374931.267 -9542080.569 10 0 59931 11700.00000 0 9723004.336 -20077281.126 -12357655.532 10 0 59931 12600.00000 0 9368351.092 -18425544.664 -14933002.733 10 0 59931 13500.00000 0 9109753.121 -16454079.469 -17218018.745 10 0 59931 14400.00000 0 8990160.572 -14208193.227 -19168238.309 10 0 59931 15300.00000 0 9043855.904 -11742447.073 -20745703.538 10 0 59931 16200.00000 0 9294852.648 -9118582.185 -21919705.992 10 0 59931 17100.00000 0 9755741.765 -6403155.583 -22667387.121 10 0 59931 18000.00000 0 10427035.020 -3664983.402 -22974185.309 10 0 59931 18900.00000 0 11297033.830 -972497.793 -22834120.873 10 0 59931 19800.00000 0 12342229.759 1608872.870 -22249913.460 10 0 59931 20700.00000 0 13528220.449 4019191.702 -21232929.536 10 0 59931 21600.00000 0 14811102.883 6206265.850 -19802960.914 10 0 59931 22500.00000 0 16139285.760 8127570.676 -17987838.517 10 0 59931 23400.00000 0 17455644.874 9751766.023 -15822888.825 10 0 59931 24300.00000 0 18699930.831 11059742.278 -13350243.515 10 0 59931 25200.00000 0 19811327.612 12045153.691 -10618015.765 10 0 59931 26100.00000 0 20731053.952 12714417.938 -7679359.482 10 0 59931 27000.00000 0 21404897.595 13086183.523 -4591430.099 10 0 59931 27900.00000 0 21785575.272 13190289.078 -1414267.576 10 0 59931 28800.00000 0 21834818.550 13066260.012 1790375.938 10 0 59931 29700.00000 0 21525097.422 12761407.542 4960240.426 10 0 59931 30600.00000 0 20840908.799 12328611.782 8033770.298 10 0 59931 31500.00000 0 19779575.657 11823883.716 10951310.547 10 0 59931 32400.00000 0 18351523.182 11303809.944 13656263.309 10 0 59931 33300.00000 0 16580020.373 10822988.705 16096182.398 10 0 59931 34200.00000 0 14500397.928 10431565.618 18223784.776 10 0 59931 35100.00000 0 12158775.065 10172973.031 19997859.974 10 0 59931 36000.00000 0 9610348.105 10081967.947 21384060.640 10 0 59931 36900.00000 0 6917311.782 10183050.717 22355559.775 10 0 59931 37800.00000 0 4146498.988 10489330.545 22893562.962 10 0 59931 38700.00000 0 1366836.056 11001885.193 22987666.549 10 0 59931 39600.00000 0 -1353281.891 11709641.603 22636055.534 10 0 59931 40500.00000 0 -3948588.017 12589782.595 21845537.773 10 0 59931 41400.00000 0 -6359407.009 13608663.052 20631413.918 10 0 59931 42300.00000 0 -8533883.553 14723197.791 19017185.362 10 0 59931 43200.00000 0 -10429884.939 15882663.861 17034105.297 10 0 59931 44100.00000 0 -12016499.840 17030842.557 14720580.759 10 0 59931 45000.00000 0 -13275071.794 18108412.191 12121436.355 10 0 59931 45900.00000 0 -14199725.124 19055491.832 9287052.978 10 0 59931 46800.00000 0 -14797361.905 19814229.617 6272397.335 10 0 59931 47700.00000 0 -15087130.537 20331326.861 3135960.493 10 0 59931 48600.00000 0 -15099388.633 20560391.526 -61374.399 10 0 59931 49500.00000 0 -14874204.168 20464021.315 -3257513.414 10 0 59931 50400.00000 0 -14459458.315 20015527.757 -6390359.017 10 0 59931 51300.00000 0 -13908630.405 19200227.474 -9399019.375 10 0 59931 52200.00000 0 -13278358.947 18016244.915 -12224995.802 10 0 59931 53100.00000 0 -12625882.248 16474791.398 -14813324.667 10 0 59931 54000.00000 0 -12006467.340 14599907.295 -17113651.036 10 0 59931 54900.00000 0 -11470936.451 12427676.838 -19081212.744 10 0 59931 55800.00000 0 -11063396.072 10004947.286 -20677715.334 10 0 59931 56700.00000 0 -10819265.139 7387605.002 -21872080.665 10 0 59931 57600.00000 0 -10763686.024 4638479.579 -22641054.528 10 0 59931 58500.00000 0 -10910385.896 1824962.804 -22969661.375 10 0 59931 59400.00000 0 -11261036.866 -983558.857 -22851497.365 10 0 59931 60300.00000 0 -11805142.248 -3718351.891 -22288856.019 10 0 59931 61200.00000 0 -12520454.041 -6313953.595 -21292684.008 10 0 59931 62100.00000 0 -13373904.245 -8710651.700 -19882367.900 10 0 59931 63000.00000 0 -14323010.926 -10856723.026 -18085355.854 10 0 59931 63900.00000 0 -15317699.752 -12710338.418 -15936621.599 10 0 59931 64800.00000 0 -16302464.145 -14241055.309 -13477981.026 10 0 59931 65700.00000 0 -17218772.700 -15430836.529 -10757274.719 10 0 59931 66600.00000 0 -18007621.962 -16274553.800 -7827432.561 10 0 59931 67500.00000 0 -18612126.404 -16779956.221 -4745438.912 10 0 59931 68400.00000 0 -18980035.777 -16967106.548 -1571218.953 10 0 59931 69300.00000 0 -19066073.119 -16867310.541 1633531.482 10 0 59931 70200.00000 0 -18833994.272 -16521586.074 4806549.206 10 0 59931 71100.00000 0 -18258281.706 -15978738.061 7886216.158 10 0 59931 72000.00000 0 -17325400.968 -15293121.681 10812756.900 10 0 59931 72900.00000 0 -16034566.692 -14522189.360 13529397.644 10 0 59931 73800.00000 0 -14397985.778 -13723925.681 15983464.319 10 0 59931 74700.00000 0 -12440567.418 -12954278.751 18127398.549 10 0 59931 75600.00000 0 -10199111.842 -12264696.261 19919672.486 10 0 59931 76500.00000 0 -7721011.280 -11699869.640 21325585.530 10 0 59931 77400.00000 0 -5062516.825 -11295780.674 22317928.412 10 0 59931 78300.00000 0 -2286642.528 -11078132.010 22877502.790 10 0 59931 79200.00000 0 539207.192 -11061226.789 22993487.196 10 0 59931 80100.00000 0 3345789.427 -11247343.887 22663642.935 10 0 59931 81000.00000 0 6064649.485 -11626634.628 21894356.407 10 0 59931 81900.00000 0 8630714.915 -12177545.253 20700517.118 10 0 59931 82800.00000 0 10984750.592 -12867747.621 19105233.513 10 0 59931 83700.00000 0 13075574.300 -13655539.546 17139391.583 10 0 59931 84600.00000 0 14861941.969 -14491656.647 14841063.974 10 0 59931 85500.00000 0 16314024.956 -15321420.225 12254780.184 10 0 59932 0.00000 0 17414418.570 -16087131.484 9430671.276 10 0 59932 900.00000 0 18158640.761 -16730612.179 6423503.263 10 0 59932 1800.00000 0 18555099.073 -17195783.878 3291621.128 10 0 59932 2700.00000 0 18624529.537 -17431178.407 95818.479 10 0 59932 3600.00000 0 18398929.697 -17392272.065 -3101841.677 10 0 59932 4500.00000 0 17920031.561 -17043544.792 -6239233.412 10 0 59932 5400.00000 0 17237378.909 -16360176.251 -9255377.653 10 0 59932 6300.00000 0 16406090.364 -15329305.947 -12091631.274 10 0 59932 7200.00000 0 15484402.967 -13950802.849 -14692831.766 10 0 59932 8100.00000 0 14531100.358 -12237510.542 -17008374.737 10 0 59932 9000.00000 0 13602934.542 -10214956.044 -18993202.815 10 0 59932 9900.00000 0 12752150.497 -7920533.109 -20608686.317 10 0 59932 10800.00000 0 12024218.422 -5402192.872 -21823378.373 10 0 59932 11700.00000 0 11455869.562 -2716695.411 -22613629.697 10 0 59932 12600.00000 0 11073518.668 72505.655 -22964051.003 10 0 59932 13500.00000 0 10892139.685 2897658.158 -22867814.095 10 0 59932 14400.00000 0 10914642.098 5689286.845 -22326785.797 10 0 59932 15300.00000 0 11131774.189 8378842.555 -21351492.076 10 0 59932 16200.00000 0 11522557.165 10901315.296 -19960913.011 10 0 59932 17100.00000 0 12055231.686 13197702.896 -18182112.462 10 0 59932 18000.00000 0 12688676.615 15217232.760 -16049709.580 10 0 59932 18900.00000 0 13374239.801 16919244.673 -13605202.354 10 0 59932 19800.00000 0 14057903.176 18274656.750 -10896156.383 10 0 59932 20700.00000 0 14682690.218 19266954.015 -7975274.870 10 0 59932 21600.00000 0 15191213.492 19892659.347 -4899368.225 10 0 59932 22500.00000 0 15528253.973 20161268.278 -1728243.797 10 0 59932 23400.00000 0 15643262.542 20094651.743 1476462.029 10 0 59932 24300.00000 0 15492677.373 19725953.410 4652486.040 10 0 59932 25200.00000 0 15041958.807 19098029.491 7738150.741 10 0 59932 26100.00000 0 14267255.462 18261498.065 10673563.115 10 0 59932 27000.00000 0 13156630.984 17272481.278 13401776.054 10 0 59932 27900.00000 0 11710799.505 16190136.357 15869889.910 10 0 59932 28800.00000 0 9943338.643 15074079.905 18030072.971 10 0 59932 29700.00000 0 7880370.751 13981813.962 19840481.670 10 0 59932 30600.00000 0 5559725.251 12966261.789 21266063.483 10 0 59932 31500.00000 0 3029616.473 12073516.351 22279227.830 10 0 59932 32400.00000 0 346891.213 11340895.186 22860373.020 10 0 59932 33300.00000 0 -2425082.128 10795382.362 22998259.927 10 0 59932 34200.00000 0 -5218796.280 10452521.959 22690225.870 10 0 59932 35100.00000 0 -7965162.210 10315808.676 21942235.024 10 0 59932 36000.00000 0 -10596135.963 10376600.576 20768764.496 10 0 59932 36900.00000 0 -13047307.585 10614557.333 19192528.044 10 0 59932 37800.00000 0 -15260346.030 10998585.606 17244042.276 10 0 59932 38700.00000 0 -17185199.656 11488252.044 14961042.902 10 0 59932 39600.00000 0 -18781961.608 12035604.969 12387761.486 10 0 59932 40500.00000 0 -20022323.142 12587328.503 9574075.742 10 0 59932 41400.00000 0 -20890554.669 13087138.812 6574548.943 10 0 59932 42300.00000 0 -21383973.753 13478321.677 3447376.469 10 0 59932 43200.00000 0 -21512880.604 13706304.270 253259.441 10 0 59932 44100.00000 0 -21299963.828 13721152.215 -2945772.868 10 0 59932 45000.00000 0 -20779201.433 13479885.811 -6087568.799 10 0 59932 45900.00000 0 -19994303.411 12948516.601 -9111064.544 10 0 59932 46800.00000 0 -18996761.641 12103717.037 -11957474.849 10 0 59932 47700.00000 0 -17843589.476 10934051.376 -14571440.441 10 0 59932 48600.00000 0 -16594846.603 9440714.334 -16902109.316 10 0 59932 49500.00000 0 -15311053.779 7637744.749 -18904130.461 10 0 59932 50400.00000 0 -14050606.711 5551703.718 -20538540.224 10 0 59932 51300.00000 0 -12867298.279 3220829.164 -21773523.917 10 0 59932 52200.00000 0 -11808053.573 693700.806 -22585037.759 10 0 59932 53100.00000 0 -10910973.198 -1972529.769 -22957278.948 10 0 59932 54000.00000 0 -10203767.076 -4714271.144 -22882994.818 10 0 59932 54900.00000 0 -9702644.477 -7463898.122 -22363625.033 10 0 59932 55800.00000 0 -9411706.712 -10152332.150 -21409274.044 10 0 59932 56700.00000 0 -9322867.599 -12711689.164 -20038514.291 10 0 59932 57600.00000 0 -9416304.583 -15077884.987 -18278023.857 10 0 59932 58500.00000 0 -9661420.934 -17193090.007 -16162065.537 10 0 59932 59400.00000 0 -10018277.763 -19007931.131 -13731817.394 10 0 59932 60300.00000 0 -10439434.743 -20483349.594 -11034567.820 10 0 59932 61200.00000 0 -10872121.017 -21592037.415 -8122790.965 10 0 59932 62100.00000 0 -11260643.732 -22319393.178 -5053120.831 10 0 59932 63000.00000 0 -11548931.574 -22663958.017 -1885244.405 10 0 59932 63900.00000 0 -11683104.917 -22637314.558 1319263.947 10 0 59932 64800.00000 0 -11613963.181 -22263454.370 4498143.581 10 0 59932 65700.00000 0 -11299283.576 -21577641.834 7589660.190 10 0 59932 66600.00000 0 -10705833.594 -20624823.492 10533805.807 10 0 59932 67500.00000 0 -9811011.867 -19457651.003 13273462.592 10 0 59932 68400.00000 0 -8604047.850 -18134201.760 15755507.814 10 0 59932 69300.00000 0 -7086709.531 -16715493.643 17931838.746 10 0 59932 70200.00000 0 -5273489.059 -15262898.554 19760298.176 10 0 59932 71100.00000 0 -3191257.974 -13835563.123 21205483.407 10 0 59932 72000.00000 0 -878405.896 -12487944.283 22239423.924 10 0 59932 72900.00000 0 1616502.279 -11267562.151 22842115.645 10 0 59932 73800.00000 0 4236495.789 -10213063.256 23001902.314 10 0 59932 74700.00000 0 6918321.571 -9352674.135 22715697.363 10 0 59932 75600.00000 0 9594835.163 -8703108.877 21989042.426 10 0 59932 76500.00000 0 12197561.121 -8268975.407 20836001.501 10 0 59932 77400.00000 0 14659317.982 -8042704.675 19278892.587 10 0 59932 78300.00000 0 16916800.152 -8005005.206 17347861.482 10 0 59932 79200.00000 0 18913010.551 -8125823.772 15080305.190 10 0 59932 80100.00000 0 20599443.655 -8365771.819 12520155.231 10 0 59932 81000.00000 0 21937928.667 -8677957.815 9717033.786 10 0 59932 81900.00000 0 22902056.281 -9010148.541 6725298.122 10 0 59932 82800.00000 0 23478129.511 -9307168.315 3602991.219 10 0 59932 83700.00000 0 23665598.780 -9513434.862 410718.472 10 0 59932 84600.00000 0 23476962.883 -9575524.414 -2789527.933 10 0 59932 85500.00000 0 22937139.795 -9444657.093 -5935573.950 99